Time,TemperatureF,DewpointF,PressureIn,WindDirection,WindDirectionDegrees,WindSpeedMPH,WindSpeedGustMPH,Humidity,HourlyPrecipIn,Conditions,Clouds,dailyrainin,SolarRadiationWatts/m^2,SoftwareType,DateUTC
2013-08-04 00:02:00,73.0,38.0,-100.00,NNE,32,1.0,4.0,28,0.00,,,0.00,0.000000,,2013-08-04 07:02:00,
2013-08-04 00:12:00,73.0,38.0,-100.00,NNE,32,1.0,4.0,28,0.00,,,0.00,0.000000,,2013-08-04 07:12:00,
2013-08-04 00:43:00,71.0,37.0,-100.00,NE,50,4.0,9.0,29,0.00,,,0.00,0.000000,,2013-08-04 07:43:00,
2013-08-04 00:53:00,71.0,37.0,-100.00,NE,50,4.0,9.0,29,0.00,,,0.00,0.000000,,2013-08-04 07:53:00,
2013-08-04 01:02:00,71.0,37.0,-100.00,NE,50,4.0,9.0,29,0.00,,,0.00,0.000000,,2013-08-04 08:02:00,
2013-08-04 01:11:00,71.0,37.0,-100.00,NE,50,4.0,9.0,29,0.00,,,0.00,0.000000,,2013-08-04 08:11:00,
2013-08-04 01:43:00,69.0,36.0,-100.00,NE,37,4.0,7.0,30,0.00,,,0.00,0.000000,,2013-08-04 08:43:00,
2013-08-04 01:53:00,69.0,36.0,-100.00,NE,37,4.0,7.0,30,0.00,,,0.00,0.000000,,2013-08-04 08:53:00,
2013-08-04 02:02:00,69.0,36.0,-100.00,NE,37,4.0,7.0,30,0.00,,,0.00,0.000000,,2013-08-04 09:02:00,
2013-08-04 02:12:00,69.0,36.0,-100.00,NE,37,4.0,7.0,30,0.00,,,0.00,0.000000,,2013-08-04 09:12:00,
2013-08-04 02:32:00,69.0,36.0,-100.00,NE,44,3.0,6.0,30,0.00,,,0.00,0.000000,,2013-08-04 09:32:00,
2013-08-04 02:43:00,69.0,36.0,-100.00,NE,44,3.0,6.0,30,0.00,,,0.00,0.000000,,2013-08-04 09:43:00,
2013-08-04 02:52:00,69.0,36.0,-100.00,NE,44,3.0,6.0,30,0.00,,,0.00,0.000000,,2013-08-04 09:52:00,
2013-08-04 03:02:00,69.0,36.0,-100.00,NE,44,3.0,6.0,30,0.00,,,0.00,0.000000,,2013-08-04 10:02:00,
2013-08-04 03:12:00,69.0,36.0,-100.00,NE,44,3.0,6.0,30,0.00,,,0.00,0.000000,,2013-08-04 10:12:00,
2013-08-04 03:43:00,70.0,35.0,-100.00,ENE,74,4.0,7.0,28,0.00,,,0.00,0.000000,,2013-08-04 10:43:00,
2013-08-04 03:53:00,70.0,35.0,-100.00,ENE,74,4.0,7.0,28,0.00,,,0.00,0.000000,,2013-08-04 10:53:00,
2013-08-04 04:02:00,70.0,35.0,-100.00,ENE,74,4.0,7.0,28,0.00,,,0.00,0.000000,,2013-08-04 11:02:00,
2013-08-04 04:11:00,70.0,35.0,-100.00,ENE,74,4.0,7.0,28,0.00,,,0.00,0.000000,,2013-08-04 11:11:00,
2013-08-04 04:42:00,69.0,37.0,-100.00,ENE,68,5.0,7.0,31,0.00,,,-99.99,0.000000,,2013-08-04 11:42:00,
2013-08-04 04:53:00,69.0,37.0,-100.00,ENE,68,5.0,7.0,31,0.00,,,-99.99,0.000000,,2013-08-04 11:53:00,
2013-08-04 05:02:00,69.0,37.0,-100.00,ENE,68,5.0,7.0,31,0.00,,,-99.99,0.000000,,2013-08-04 12:02:00,
2013-08-04 05:12:00,69.0,37.0,-100.00,ENE,68,5.0,7.0,31,0.00,,,-99.99,0.000000,,2013-08-04 12:12:00,
2013-08-04 05:32:00,69.0,35.0,-100.00,NE,35,2.0,5.0,29,0.00,,,0.00,0.000000,,2013-08-04 12:32:00,
2013-08-04 05:43:00,69.0,35.0,-100.00,NE,35,2.0,5.0,29,0.00,,,0.00,0.000000,,2013-08-04 12:43:00,
2013-08-04 05:53:00,69.0,35.0,-100.00,NE,35,2.0,5.0,29,0.00,,,0.00,0.000000,,2013-08-04 12:53:00,
2013-08-04 06:02:00,69.0,35.0,-100.00,NE,35,2.0,5.0,29,0.00,,,0.00,0.000000,,2013-08-04 13:02:00,
2013-08-04 06:12:00,69.0,35.0,-100.00,NE,35,2.0,5.0,29,0.00,,,0.00,0.000000,,2013-08-04 13:12:00,
2013-08-04 06:43:00,68.0,35.0,-100.00,NE,50,4.0,5.0,30,0.00,,,0.00,1.000000,,2013-08-04 13:43:00,
2013-08-04 06:52:00,68.0,35.0,-100.00,NE,50,4.0,5.0,30,0.00,,,0.00,1.000000,,2013-08-04 13:52:00,
2013-08-04 07:02:00,68.0,35.0,-100.00,NE,50,4.0,5.0,30,0.00,,,0.00,1.000000,,2013-08-04 14:02:00,
2013-08-04 07:12:00,68.0,35.0,-100.00,NE,50,4.0,5.0,30,0.00,,,0.00,1.000000,,2013-08-04 14:12:00,
2013-08-04 08:02:00,72.0,37.0,-100.00,NNE,27,2.0,5.0,28,0.00,,,0.00,63.000000,,2013-08-04 15:02:00,
2013-08-04 08:12:00,72.0,37.0,-100.00,NNE,27,2.0,5.0,28,0.00,,,0.00,63.000000,,2013-08-04 15:12:00,
2013-08-04 11:33:00,89.0,38.0,-100.00,WSW,242,8.0,12.0,17,0.00,,,0.00,821.000000,,2013-08-04 18:33:00,
2013-08-04 11:43:00,89.0,38.0,-100.00,WSW,242,8.0,12.0,17,0.00,,,0.00,821.000000,,2013-08-04 18:43:00,
2013-08-04 11:52:00,89.0,38.0,-100.00,WSW,242,8.0,12.0,17,0.00,,,0.00,821.000000,,2013-08-04 18:52:00,
2013-08-04 12:02:00,89.0,38.0,-100.00,WSW,242,8.0,12.0,17,0.00,,,0.00,821.000000,,2013-08-04 19:02:00,
2013-08-04 12:12:00,89.0,38.0,-100.00,WSW,242,8.0,12.0,17,0.00,,,0.00,821.000000,,2013-08-04 19:12:00,
2013-08-04 12:43:00,91.0,43.0,-100.00,West,279,7.0,13.0,19,0.00,,,0.00,922.000000,,2013-08-04 19:43:00,
2013-08-04 12:53:00,91.0,43.0,-100.00,West,279,7.0,13.0,19,0.00,,,0.00,922.000000,,2013-08-04 19:53:00,
2013-08-04 13:02:00,91.0,43.0,-100.00,West,279,7.0,13.0,19,0.00,,,0.00,922.000000,,2013-08-04 20:02:00,
2013-08-04 13:12:00,91.0,43.0,-100.00,West,279,7.0,13.0,19,0.00,,,0.00,922.000000,,2013-08-04 20:12:00,
2013-08-04 13:43:00,93.0,45.0,-100.00,SW,234,6.0,12.0,19,0.00,,,0.00,924.000000,,2013-08-04 20:43:00,
2013-08-04 13:53:00,93.0,45.0,-100.00,SW,234,6.0,12.0,19,0.00,,,0.00,924.000000,,2013-08-04 20:53:00,
2013-08-04 14:02:00,93.0,45.0,-100.00,SW,234,6.0,12.0,19,0.00,,,0.00,924.000000,,2013-08-04 21:02:00,
2013-08-04 14:12:00,93.0,45.0,-100.00,SW,234,6.0,12.0,19,0.00,,,0.00,924.000000,,2013-08-04 21:12:00,
2013-08-04 14:43:00,94.0,44.0,-100.00,West,277,6.0,12.0,18,0.00,,,0.00,948.000000,,2013-08-04 21:43:00,
2013-08-04 14:53:00,94.0,44.0,-100.00,West,277,6.0,12.0,18,0.00,,,0.00,948.000000,,2013-08-04 21:53:00,
2013-08-04 15:01:00,94.0,44.0,-100.00,West,277,6.0,12.0,18,0.00,,,0.00,948.000000,,2013-08-04 22:01:00,
2013-08-04 15:11:00,94.0,44.0,-100.00,West,277,6.0,12.0,18,0.00,,,0.00,948.000000,,2013-08-04 22:11:00,
2013-08-04 15:43:00,95.0,42.0,-100.00,NNE,17,4.0,13.0,16,0.00,,,0.00,881.000000,,2013-08-04 22:43:00,
2013-08-04 15:53:00,95.0,42.0,-100.00,NNE,17,4.0,13.0,16,0.00,,,0.00,881.000000,,2013-08-04 22:53:00,
2013-08-04 16:02:00,95.0,42.0,-100.00,NNE,17,4.0,13.0,16,0.00,,,0.00,881.000000,,2013-08-04 23:02:00,
2013-08-04 16:11:00,95.0,42.0,-100.00,NNE,17,4.0,13.0,16,0.00,,,0.00,881.000000,,2013-08-04 23:11:00,
2013-08-04 16:32:00,96.0,41.0,-100.00,West,267,5.0,14.0,15,0.00,,,0.00,740.000000,,2013-08-04 23:32:00,
2013-08-04 16:43:00,96.0,41.0,-100.00,West,267,5.0,14.0,15,0.00,,,0.00,740.000000,,2013-08-04 23:43:00,
2013-08-04 16:53:00,96.0,41.0,-100.00,West,267,5.0,14.0,15,0.00,,,0.00,740.000000,,2013-08-04 23:53:00,
2013-08-04 17:01:00,96.0,41.0,-100.00,West,267,5.0,14.0,15,0.00,,,0.00,740.000000,,2013-08-05 00:01:00,
2013-08-04 17:12:00,96.0,41.0,-100.00,West,267,5.0,14.0,15,0.00,,,0.00,740.000000,,2013-08-05 00:12:00,
2013-08-04 17:42:00,96.0,41.0,-100.00,West,266,5.0,11.0,15,0.00,,,0.00,562.000000,,2013-08-05 00:42:00,
2013-08-04 17:52:00,96.0,41.0,-100.00,West,266,5.0,11.0,15,0.00,,,0.00,562.000000,,2013-08-05 00:52:00,
2013-08-04 18:02:00,96.0,41.0,-100.00,West,266,5.0,11.0,15,0.00,,,0.00,562.000000,,2013-08-05 01:02:00,
2013-08-04 18:12:00,96.0,41.0,-100.00,West,266,5.0,11.0,15,0.00,,,0.00,562.000000,,2013-08-05 01:12:00,
2013-08-04 18:33:00,93.0,40.0,-100.00,West,268,5.0,12.0,16,0.00,,,0.00,361.000000,,2013-08-05 01:33:00,
2013-08-04 18:43:00,93.0,40.0,-100.00,West,268,5.0,12.0,16,0.00,,,0.00,361.000000,,2013-08-05 01:43:00,
2013-08-04 18:52:00,93.0,40.0,-100.00,West,268,5.0,12.0,16,0.00,,,0.00,361.000000,,2013-08-05 01:52:00,
2013-08-04 19:02:00,93.0,40.0,-100.00,West,268,5.0,12.0,16,0.00,,,0.00,361.000000,,2013-08-05 02:02:00,
2013-08-04 19:11:00,93.0,40.0,-100.00,West,268,5.0,12.0,16,0.00,,,0.00,361.000000,,2013-08-05 02:11:00,
2013-08-04 19:33:00,88.0,39.0,-100.00,WSW,257,5.0,10.0,18,0.00,,,0.00,152.000000,,2013-08-05 02:33:00,
2013-08-04 19:43:00,88.0,39.0,-100.00,WSW,257,5.0,10.0,18,0.00,,,0.00,152.000000,,2013-08-05 02:43:00,
2013-08-04 19:53:00,88.0,39.0,-100.00,WSW,257,5.0,10.0,18,0.00,,,0.00,152.000000,,2013-08-05 02:53:00,
2013-08-04 20:02:00,88.0,39.0,-100.00,WSW,257,5.0,10.0,18,0.00,,,0.00,152.000000,,2013-08-05 03:02:00,
2013-08-04 20:11:00,88.0,39.0,-100.00,WSW,257,5.0,10.0,18,0.00,,,0.00,152.000000,,2013-08-05 03:11:00,
2013-08-04 20:42:00,82.0,41.0,-100.00,NNE,24,2.0,6.0,23,0.00,,,0.00,10.000000,,2013-08-05 03:42:00,
2013-08-04 20:53:00,82.0,41.0,-100.00,NNE,24,2.0,6.0,23,0.00,,,0.00,10.000000,,2013-08-05 03:53:00,
2013-08-04 21:02:00,82.0,41.0,-100.00,NNE,24,2.0,6.0,23,0.00,,,0.00,10.000000,,2013-08-05 04:02:00,
2013-08-04 21:11:00,82.0,41.0,-100.00,NNE,24,2.0,6.0,23,0.00,,,0.00,10.000000,,2013-08-05 04:11:00,
2013-08-04 21:32:00,76.0,41.0,-100.00,NE,45,4.0,6.0,29,0.00,,,0.00,0.000000,,2013-08-05 04:32:00,
2013-08-04 21:43:00,76.0,41.0,-100.00,NE,45,4.0,6.0,29,0.00,,,0.00,0.000000,,2013-08-05 04:43:00,
2013-08-04 21:52:00,76.0,41.0,-100.00,NE,45,4.0,6.0,29,0.00,,,0.00,0.000000,,2013-08-05 04:52:00,
2013-08-04 22:02:00,76.0,41.0,-100.00,NE,45,4.0,6.0,29,0.00,,,0.00,0.000000,,2013-08-05 05:02:00,
2013-08-04 22:11:00,76.0,41.0,-100.00,NE,45,4.0,6.0,29,0.00,,,0.00,0.000000,,2013-08-05 05:11:00,
2013-08-04 22:43:00,74.0,43.0,-100.00,SW,217,4.0,7.0,33,0.00,,,0.00,0.000000,,2013-08-05 05:43:00,
2013-08-04 22:53:00,74.0,43.0,-100.00,SW,217,4.0,7.0,33,0.00,,,0.00,0.000000,,2013-08-05 05:53:00,
2013-08-04 23:02:00,74.0,43.0,-100.00,SW,217,4.0,7.0,33,0.00,,,0.00,0.000000,,2013-08-05 06:02:00,
2013-08-04 23:11:00,74.0,43.0,-100.00,SW,217,4.0,7.0,33,0.00,,,0.00,0.000000,,2013-08-05 06:11:00,
2013-08-04 23:43:00,72.0,40.0,-100.00,NE,54,6.0,9.0,31,0.00,,,0.00,0.000000,,2013-08-05 06:43:00,
2013-08-04 23:52:00,72.0,40.0,-100.00,NE,54,6.0,9.0,31,0.00,,,0.00,0.000000,,2013-08-05 06:52:00,